Weather Roundup
Issued by NWS Chicago, IL

Home | Current Version | Previous Version | Graphics & Text | Print | Product List | Glossary On
Versions: 1 2 3 4 5 6 7 8 9 10 11 12 13 14 15 16 17 18 19 20 21 22 23 24 25 26 27 28 29 30 31 32 33 34 35 36 37 38 39 40 41 42 43 44 45 46 47 48 49 50
000
NZUS59 KLOT 181306
HRRLOT

CHICAGO AREA WEATHER ROUNDUP
NATIONAL WEATHER SERVICE CHICAGO/ROMEOVILLE IL
700 AM CST THU DEC 18 2014

NOTE: "FAIR" INDICATES FEW OR NO CLOUDS BELOW 12,000 FEET WITH NO
SIGNIFICANT WEATHER AND/OR OBSTRUCTIONS TO VISIBILITY.

* THESE STATIONS ARE NOT UNDER NWS QUALITY CONTROL. THEY ALSO MAY NOT
  REPORT WEATHER SUCH AS PRECIPITATION OR FOG.

ILZ005-006-012>014-019>023-181400-
NORTHEAST ILLINOIS

CITY           SKY/WX    TMP DP  RH WIND       PRES   REMARKS
OHARE          PTCLDY    19  13  77 W3        30.27S
MIDWAY         CLOUDY    25  16  68 NW3       30.28R
AURORA         CLOUDY    23  15  71 CALM      30.29R
LANSING*       CLOUDY    24  17  74 CALM      30.29R
JOLIET*        CLOUDY    23  16  75 CALM      30.30R
WAUKEGAN       MOCLDY    17  14  88 SW3       30.26R
DUPAGE AIRPORT CLOUDY    21  14  74 W3        30.27R
WHEELING       CLEAR     19  13  77 W3        30.29S
KANKAKEE*      CLOUDY    24  18  79 CALM      30.30R
MORRIS*        PTCLDY    20  19  93 NW3       30.29R
LEWIS AIRPORT* CLOUDY    23  17  78 CALM      30.29R
NORTHERLY IS     N/A     24  17  74 W3          N/A
$$

WIZ051-052-058>065-066-070>072-181400-
SOUTHEAST WISCONSIN

CITY           SKY/WX    TMP DP  RH WIND       PRES   REMARKS
MILWAUKEE      PTCLDY    20  14  77 SW7       30.26R WCI  11
KENOSHA*       PTCLDY    18  14  84 W6        30.26R WCI  10
RACINE*        PTCLDY    18  13  80 W8        30.27R WCI   8
BURLINGTON     CLEAR     14  12  91 CALM      30.26S
WAUKESHA       MOCLDY    19  18  93 W5        30.26R WCI  13
WEST BEND      CLOUDY    25  21  86 NW3       30.23S
$$

INZ001>003-010>013-019-020-181400-
NORTHWEST INDIANA

CITY           SKY/WX    TMP DP  RH WIND       PRES   REMARKS
GARY*          CLOUDY    27  18  69 W7        30.29R WCI  19
MICHIGAN CITY* NOT AVBL
RENSSELAER*    NOT AVBL
VALPARAISO     CLOUDY    24  17  74 SW7       30.28R WCI  16
$$

LMZ740>746-181400-
SOUTHERN LAKE MICHIGAN

STATION/POSITION TIME  SKY/WX   TEMP WIND        PRES    VSBY
                                AIR  DIR/SP/G
                 (UTC)          (F)  (DEG/KT/KT) (MB)    (MI)
HARRISON CRIB    1300            23  290/  7/  9   N/A
BURNHAM HARBOR   1300            24  300/  2/  7   N/A
CALUMET HARBOR   1300            25  180/  1/  3 1024.0S
BURNS HARBOR     NOT AVBL
MICHIGAN CITY    NOT AVBL
$$

ABBREVIATIONS USED IN REMARKS
   TC - TEMPERATURE IN CELSIUS
  WCI - WIND CHILL INDEX
   HX - HEAT INDEX
  VSB - VISIBILITY
$$



USA.gov is the U.S. government's official web portal to all federal, state and local government web resources and services.